Wind_Speed
19 21 23 24 25 25 26 27 28 28 28 29 30 31 32 33 34 35 36 37 39 41 42 44 46 46 45 44 43 44 43 42 40 39 37 36 34 32 30 30 30 29 29 28
19 20 22 22 22 23 24 25 26 27 27 28 29 30 31 33 34 35 37 39 41 43 45 46 48 49 49 49 49 47 46 45 44 42 41 39 38 36 34 32 31 31 32 31
17 19 19 20 21 22 23 24 26 27 28 29 30 31 32 33 34 36 37 39 41 42 44 46 48 48 48 48 50 49 47 46 46 45 43 42 40 38 37 36 35 34 34 34
16 17 18 19 20 22 23 23 24 26 28 29 29 31 31 32 34 35 36 38 39 40 41 43 43 45 46 46 47 48 47 46 44 45 44 42 41 40 38 38 37 36 36 36
14 16 17 18 19 20 21 21 23 24 25 26 27 28 28 29 30 31 33 34 36 37 38 38 37 38 39 41 42 43 43 44 43 43 43 41 39 39 39 39 39 38 38 36
13 14 15 16 18 19 20 21 22 22 23 23 24 25 25 25 25 27 28 29 30 31 31 31 31 31 32 33 35 36 37 37 37 39 40 39 39 38 37 37 37 37 37 37
11 13 15 16 17 18 19 20 21 21 20 20 20 21 21 22 23 23 23 23 24 24 23 23 23 24 23 24 25 27 29 30 31 33 35 36 37 36 36 35 35 35 35 34
11 13 14 16 17 18 19 19 20 19 18 18 17 17 18 19 20 20 20 20 21 20 19 16 15 16 16 16 18 20 23 24 25 27 29 31 31 32 32 31 32 32 32 32
12 13 14 16 17 17 17 17 17 16 16 15 15 16 16 18 19 19 18 18 17 17 16 13 11 11 11 11 12 13 15 18 20 22 24 26 27 27 28 28 29 29 30 31
12 13 15 16 16 17 17 17 16 15 15 14 14 15 16 16 17 17 18 17 16 16 15 13 10 10 8 8 7 7 9 12 14 16 18 20 22 23 24 25 26 27 28 30
14 15 16 17 17 17 17 16 15 14 14 14 15 15 16 16 17 18 18 17 17 17 15 13 11 10 8 6 5 5 5 6 9 11 13 15 16 18 19 21 23 25 26 27
16 16 17 18 18 17 17 16 16 15 15 15 15 16 17 18 18 19 19 19 18 18 18 16 14 13 12 10 8 7 6 4 3 3 5 6 8 11 13 15 16 18 20 22
17 17 18 18 19 18 18 17 17 16 15 15 16 16 18 19 19 20 21 21 20 20 20 19 19 17 16 15 14 13 11 10 8 7 5 3 3 4 6 9 11 12 14 16
18 18 18 19 19 19 18 18 17 17 16 16 17 17 18 19 20 20 21 22 22 22 22 22 21 21 20 18 17 16 15 13 12 10 8 7 6 5 5 6 6 7 9 10
19 19 19 19 20 19 18 18 17 17 17 17 17 18 18 19 20 20 22 22 23 22 22 22 22 21 21 20 19 19 18 17 15 14 13 11 10 9 8 7 7 7 7 7
19 20 20 20 20 19 18 18 17 17 17 17 17 18 18 19 20 20 22 22 23 22 22 22 22 22 21 21 20 20 20 19 18 17 16 15 13 12 11 10 10 9 8 8
19 20 20 19 19 19 18 18 17 17 17 17 18 18 18 18 19 19 20 21 22 22 23 23 23 23 22 22 22 21 21 20 20 19 18 18 17 15 14 13 13 12 11 11
17 18 19 19 19 19 18 17 17 16 16 16 17 17 17 17 18 18 19 19 20 20 21 22 23 22 22 22 22 22 21 21 21 20 20 19 18 18 17 16 15 14 13 13
16 17 17 18 18 18 18 17 16 16 15 16 16 16 16 17 17 17 18 18 19 19 20 20 21 21 22 22 22 22 22 22 22 21 21 20 20 20 20 19 19 17 16 15
13 15 16 16 17 17 17 17 15 15 14 15 15 16 16 16 16 16 17 17 18 18 19 19 19 20 21 21 21 21 21 21 22 22 22 21 21 21 22 22 21 20 20 18
10 12 14 15 16 16 16 16 15 14 13 13 14 14 14 15 15 16 16 16 16 17 17 18 18 18 19 19 20 20 20 21 21 21 22 22 23 23 23 23 23 23 22 21
8 9 11 12 13 14 15 15 15 13 12 11 12 12 13 13 13 13 14 14 15 15 16 17 17 17 17 18 18 19 20 20 20 21 21 22 23 24 24 24 25 25 24 23
6 7 8 10 11 12 13 13 13 13 12 11 10 10 10 11 11 11 12 13 14 15 15 16 16 16 16 17 17 18 19 19 19 20 21 22 23 24 24 25 26 26 26 25
7 7 7 7 8 10 10 11 11 10 11 10 9 8 9 9 9 10 11 12 13 14 15 15 16 16 16 16 16 17 18 18 19 19 21 22 22 23 24 25 26 26 27 26
9 8 7 7 7 7 8 9 9 8 8 9 8 7 7 7 7 8 9 10 12 13 14 14 15 15 15 15 15 16 17 18 18 19 20 21 22 23 23 24 25 26 27 27
11 10 9 8 7 7 6 6 7 7 6 6 7 7 6 7 6 6 7 8 10 11 12 13 13 14 14 15 15 15 16 17 18 19 20 21 22 22 23 24 25 25 25 26
Wind_Direction
266 273 279 283 286 288 289 289 288 287 286 285 284 284 284 284 283 281 279 277 274 272 271 269 266 264 262 260 258 254 251 250 249 249 249 250 250 252 253 252 252 255 256 260
277 283 286 290 291 292 291 291 290 289 289 288 287 286 286 285 283 282 281 279 278 275 273 271 269 266 264 262 259 257 253 251 249 249 250 251 252 254 254 254 256 258 259 260
285 289 292 294 295 295 295 296 295 293 292 290 290 288 288 286 285 284 282 281 280 279 275 273 270 269 266 262 260 257 255 252 250 248 249 251 252 254 256 257 258 260 262 263
294 298 300 300 302 303 304 303 300 297 295 294 292 291 290 290 289 288 288 287 285 284 280 278 274 270 267 264 261 258 257 255 253 251 250 251 253 255 257 257 258 259 261 263
306 308 307 307 308 309 309 308 306 304 300 298 297 294 295 295 293 293 293 291 289 287 284 281 278 276 272 267 263 260 259 257 256 254 252 252 253 255 256 257 259 260 261 261
316 315 313 312 312 312 311 310 309 308 306 303 303 301 302 300 298 298 299 299 297 293 289 284 282 281 278 272 265 262 259 259 257 256 255 254 255 256 256 256 256 257 258 259
326 323 321 320 320 320 317 316 316 316 316 314 312 310 310 310 311 311 311 313 311 308 302 293 286 286 286 278 266 260 257 257 256 255 255 255 255 256 256 256 256 257 257 259
336 332 332 333 331 327 323 322 323 323 324 324 323 321 321 321 324 325 325 326 327 323 316 309 300 295 292 285 273 265 257 254 254 254 254 253 254 256 257 257 256 256 256 257
345 343 342 341 339 335 334 333 331 332 334 336 339 338 336 336 338 339 339 339 340 342 337 330 325 318 310 302 289 273 260 254 253 252 253 253 255 258 259 259 258 257 257 257
1 356 353 350 349 347 344 344 345 346 347 351 352 352 353 353 353 354 355 355 355 356 354 352 350 344 332 326 314 292 271 258 255 256 256 258 259 260 260 258 257 258 258 259
12 5 3 3 2 359 355 354 358 0 3 6 8 8 9 10 10 10 11 13 13 11 9 11 7 9 16 17 15 349 317 283 272 266 264 263 261 261 262 261 259 259 259 261
18 15 15 14 11 9 8 10 10 13 16 19 22 22 23 24 25 25 25 26 27 26 26 30 34 37 38 41 45 37 33 24 359 317 293 276 269 266 266 265 264 263 263 264
21 22 23 21 18 16 18 19 20 23 27 31 33 33 33 33 35 37 37 37 38 41 44 45 45 47 51 52 53 52 51 51 50 42 28 6 331 299 283 279 274 272 270 268
25 26 26 24 21 18 21 24 28 32 36 40 41 42 40 40 41 42 43 43 45 49 49 50 51 52 56 56 54 53 53 53 54 52 45 35 24 11 355 337 313 295 286 280
29 29 28 27 23 22 24 29 33 38 42 45 46 45 45 45 44 45 47 49 50 51 51 51 53 53 54 54 53 52 52 52 51 50 49 44 36 29 18 6 356 342 328 315
30 30 29 28 26 25 29 33 38 41 43 46 47 48 47 47 47 49 51 52 52 53 53 53 54 54 53 53 53 52 52 50 50 49 48 45 42 37 32 25 15 3 350 335
29 29 29 29 28 28 33 36 41 44 45 47 48 48 49 49 50 52 52 52 53 54 55 55 54 55 54 53 53 52 50 50 50 48 47 46 43 40 34 27 18 11 3 352
27 27 29 29 29 32 34 38 41 43 46 47 49 50 51 52 52 53 53 53 53 54 55 54 54 53 52 51 50 49 50 50 49 47 45 42 40 37 32 26 20 12 4 357
26 27 28 28 30 33 34 36 38 41 45 47 50 53 54 53 54 55 55 55 56 56 56 54 53 51 50 49 48 47 47 47 46 44 42 41 39 36 33 28 22 17 11 4
22 24 26 28 30 33 34 36 39 43 49 51 54 55 54 54 56 58 58 58 58 57 54 53 51 49 48 47 46 45 44 44 44 43 42 41 38 36 32 28 24 20 15 11
15 20 23 24 27 31 33 36 39 44 49 55 56 56 55 56 58 59 58 56 54 52 50 49 47 45 44 43 42 41 41 41 42 42 41 40 37 33 29 27 25 22 19 16
359 9 15 19 23 26 30 34 39 44 49 55 57 58 58 58 58 57 55 53 50 48 46 44 43 42 42 41 41 40 39 39 39 39 38 36 34 32 30 28 26 25 24 22
329 347 359 9 16 21 26 31 36 42 46 51 56 57 59 57 56 55 53 49 46 43 41 40 39 39 39 41 40 38 38 37 37 35 34 32 32 31 30 29 28 28 28 28
302 316 331 345 360 11 18 23 28 36 41 45 50 53 54 55 55 53 49 43 40 38 37 37 37 37 38 39 38 38 36 35 34 32 31 30 30 30 30 30 30 31 31 32
287 293 303 315 331 349 4 13 20 27 34 38 41 43 45 48 50 48 44 39 37 36 36 35 35 35 36 36 36 36 36 35 33 31 30 29 29 29 30 30 31 32 34 36
280 281 285 292 302 315 332 349 2 12 20 26 30 32 34 36 38 37 35 33 33 32 31 31 31 32 33 33 33 32 33 33 32 30 30 30 29 29 30 31 32 33 36 39
Height
5891 5891 5888 5887 5886 5884 5881 5879 5876 5874 5872 5870 5868 5866 5864 5862 5860 5858 5856 5854 5853 5851 5850 5849 5849 5849 5849 5849 5850 5851 5852 5854 5855 5857 5858 5859 5860 5861 5862 5863 5864 5865 5867 5868
5889 5887 5885 5883 5881 5879 5876 5874 5871 5868 5866 5864 5861 5859 5857 5854 5852 5849 5847 5844 5842 5840 5838 5837 5836 5835 5835 5836 5837 5838 5839 5842 5844 5847 5849 5850 5852 5854 5855 5856 5857 5858 5859 5861
5885 5884 5881 5879 5876 5874 5871 5869 5865 5862 5859 5856 5854 5852 5849 5846 5843 5840 5837 5834 5831 5829 5827 5825 5822 5821 5820 5821 5823 5825 5827 5829 5832 5835 5838 5840 5843 5845 5847 5849 5850 5851 5852 5854
5882 5879 5877 5874 5871 5868 5865 5863 5859 5855 5852 5849 5848 5844 5841 5838 5834 5831 5827 5824 5820 5817 5814 5812 5809 5808 5807 5807 5809 5811 5814 5817 5820 5823 5827 5830 5833 5836 5838 5840 5842 5844 5845 5847
5879 5876 5873 5870 5867 5864 5861 5857 5854 5850 5846 5843 5840 5837 5835 5831 5827 5823 5819 5815 5810 5806 5803 5800 5798 5797 5795 5795 5796 5799 5802 5805 5809 5812 5816 5820 5823 5827 5829 5831 5833 5835 5837 5839
5876 5873 5870 5867 5864 5861 5857 5854 5850 5846 5842 5838 5835 5832 5829 5824 5820 5817 5812 5807 5802 5798 5794 5791 5789 5787 5785 5784 5785 5788 5791 5795 5798 5802 5806 5810 5813 5817 5820 5822 5824 5826 5828 5830
5874 5871 5868 5864 5861 5857 5854 5850 5846 5842 5837 5834 5831 5827 5824 5819 5815 5810 5806 5801 5796 5791 5786 5783 5781 5779 5778 5776 5777 5779 5782 5785 5789 5793 5796 5800 5804 5808 5811 5813 5815 5818 5820 5821
5872 5870 5866 5862 5858 5854 5850 5847 5843 5839 5834 5831 5827 5823 5820 5815 5811 5806 5801 5797 5792 5787 5782 5779 5776 5775 5773 5772 5772 5773 5775 5778 5781 5785 5789 5792 5796 5799 5802 5804 5807 5809 5811 5813
5871 5868 5864 5860 5856 5852 5848 5844 5840 5836 5832 5829 5825 5821 5817 5813 5808 5804 5799 5795 5790 5785 5781 5777 5774 5773 5771 5770 5769 5770 5771 5773 5776 5779 5782 5785 5788 5791 5794 5796 5798 5801 5803 5804
5870 5867 5863 5859 5855 5851 5847 5842 5839 5835 5831 5827 5824 5820 5817 5812 5808 5803 5799 5794 5790 5785 5781 5777 5774 5772 5770 5769 5768 5768 5769 5771 5773 5775 5777 5779 5782 5784 5786 5788 5791 5793 5794 5796
5870 5867 5863 5859 5854 5850 5846 5842 5837 5834 5831 5827 5824 5823 5817 5812 5808 5804 5799 5795 5791 5786 5782 5778 5776 5773 5771 5770 5769 5768 5769 5769 5771 5772 5773 5775 5777 5779 5780 5781 5783 5785 5786 5787
5870 5867 5863 5859 5855 5850 5846 5842 5838 5835 5831 5828 5825 5825 5817 5813 5809 5805 5801 5797 5792 5788 5784 5781 5778 5775 5773 5772 5771 5770 5770 5769 5770 5771 5771 5772 5773 5774 5776 5776 5777 5778 5779 5780
5871 5868 5864 5860 5858 5853 5847 5843 5839 5836 5833 5829 5826 5826 5819 5816 5812 5808 5804 5800 5796 5792 5788 5785 5781 5779 5777 5776 5775 5774 5773 5772 5771 5771 5771 5772 5772 5772 5773 5773 5773 5774 5774 5774
5873 5869 5866 5863 5858 5853 5849 5845 5842 5838 5835 5831 5828 5826 5822 5819 5815 5811 5808 5804 5800 5796 5793 5790 5787 5784 5782 5780 5779 5777 5776 5775 5774 5773 5773 5773 5772 5772 5771 5771 5771 5770 5770 5770
5874 5871 5867 5863 5859 5855 5852 5848 5844 5841 5837 5834 5831 5828 5825 5822 5819 5815 5812 5808 5805 5801 5798 5796 5793 5790 5788 5786 5784 5782 5780 5778 5777 5776 5775 5774 5773 5772 5772 5771 5770 5769 5768 5767
5876 5873 5869 5865 5862 5858 5854 5850 5847 5843 5840 5837 5834 5832 5829 5826 5822 5819 5816 5813 5810 5807 5804 5801 5798 5796 5793 5791 5789 5787 5785 5783 5781 5780 5778 5776 5775 5774 5772 5771 5769 5768 5766 5765
5878 5875 5871 5868 5865 5861 5858 5854 5850 5847 5844 5841 5838 5836 5832 5829 5826 5824 5821 5818 5815 5813 5810 5807 5804 5802 5799 5797 5794 5792 5790 5788 5785 5783 5781 5779 5777 5776 5774 5772 5769 5767 5765 5763
5880 5877 5874 5871 5868 5864 5863 5856 5853 5850 5847 5844 5841 5839 5836 5833 5830 5828 5825 5823 5820 5818 5815 5812 5810 5807 5805 5802 5800 5797 5795 5792 5790 5787 5785 5782 5780 5778 5775 5773 5770 5767 5764 5762
5882 5880 5877 5873 5870 5867 5863 5859 5856 5853 5851 5848 5845 5842 5840 5837 5834 5832 5830 5827 5825 5823 5820 5818 5815 5813 5810 5807 5805 5802 5799 5797 5794 5791 5788 5786 5783 5780 5777 5774 5771 5767 5764 5761
5884 5882 5879 5876 5872 5869 5868 5863 5859 5857 5854 5851 5848 5846 5843 5841 5839 5837 5834 5832 5830 5827 5825 5823 5820 5818 5815 5812 5809 5807 5804 5801 5798 5795 5792 5789 5786 5783 5780 5776 5772 5768 5764 5760
5885 5883 5880 5877 5875 5872 5869 5865 5862 5860 5858 5854 5852 5849 5847 5845 5843 5841 5838 5836 5834 5832 5829 5827 5825 5822 5819 5817 5814 5811 5808 5805 5802 5799 5796 5793 5790 5786 5782 5778 5774 5769 5764 5760
5885 5883 5881 5879 5876 5876 5871 5867 5865 5863 5859 5857 5855 5852 5851 5849 5846 5844 5842 5840 5838 5836 5833 5831 5828 5826 5823 5821 5818 5815 5812 5809 5806 5803 5800 5797 5793 5789 5785 5781 5776 5771 5766 5760
5884 5884 5881 5880 5880 5876 5872 5870 5867 5865 5862 5859 5857 5855 5853 5851 5850 5848 5846 5844 5841 5839 5837 5834 5832 5829 5827 5824 5821 5819 5816 5813 5810 5807 5804 5800 5797 5793 5788 5784 5779 5774 5768 5763
5883 5882 5881 5879 5878 5876 5873 5871 5869 5866 5864 5861 5859 5858 5856 5854 5852 5850 5848 5846 5844 5842 5840 5837 5835 5832 5830 5827 5825 5822 5819 5816 5813 5810 5807 5803 5800 5796 5791 5787 5782 5777 5771 5766
5881 5880 5879 5878 5877 5875 5874 5872 5870 5867 5865 5863 5861 5859 5857 5856 5854 5852 5851 5849 5846 5844 5842 5840 5837 5835 5833 5830 5828 5825 5822 5819 5817 5813 5810 5807 5803 5799 5795 5790 5786 5781 5775 5770
5878 5878 5878 5877 5876 5875 5874 5872 5870 5868 5866 5864 5862 5860 5859 5857 5855 5854 5852 5850 5848 5846 5844 5842 5840 5837 5835 5833 5830 5828 5825 5822 5820 5816 5813 5810 5806 5802 5798 5794 5789 5785 5780 5776